Volver al catálogo

COSMOS 2251 DEB

ActivoLEO
NORAD 35476·DEBRIS·🇷🇺 Russia

Lanzado Jun 16, 1993 desde Plesetsk Cosmodrome

Loading…

Próximos Pases (próximas 24 horas)

TLE

ActualizadoSource: Space-Track

Época: Sep 14, 2026, 17:06 UTC

1 35476U 93036ALW 26257.71252263  .00007404  00000-0  93616-3 0  9999
2 35476  73.9738 235.9106 0013860 176.9028 239.7989 14.81947065919686

Sigue COSMOS 2251 DEB en tiempo real con AllMySat

Download on the App Store